QPF
0.00 0.00 0.00 0.00 0.00 0.00 0.00 0.00 0.00 0.00 0.00 0.00 0.00 0.00 0.00 0.00 0.00 0.00 0.00 0.00 0.00 0.00 0.00 0.00 0.00 0.00 0.00 0.00 0.03 0.10 0.14 0.14 0.10 0.06 0.07 0.02 0.03 0.04 0.04 0.01 0.00 0.01 0.02 0.00 0.00 0.00 0.00 0.01 0.05
0.02 0.00 0.00 0.00 0.00 0.00 0.00 0.00 0.00 0.00 0.00 0.00 0.00 0.00 0.00 0.00 0.00 0.00 0.00 0.00 0.00 0.00 0.00 0.00 0.00 0.00 0.00 0.00 0.03 0.06 0.09 0.14 0.16 0.05 0.04 0.07 0.06 0.01 0.00 0.01 0.04 0.04 0.05 0.01 0.01 0.02 0.01 0.06 0.07
0.04 0.00 0.00 0.00 0.00 0.00 0.00 0.00 0.00 0.00 0.00 0.00 0.00 0.00 0.00 0.00 0.00 0.00 0.00 0.00 0.00 0.00 0.00 0.00 0.00 0.00 0.00 0.00 0.01 0.04 0.08 0.07 0.09 0.09 0.10 0.03 0.02 0.04 0.06 0.06 0.04 0.03 0.03 0.07 0.07 0.01 0.00 0.01 0.03
0.02 0.00 0.00 0.00 0.00 0.00 0.00 0.00 0.00 0.00 0.00 0.00 0.00 0.00 0.00 0.00 0.00 0.00 0.00 0.00 0.00 0.00 0.00 0.01 0.00 0.00 0.00 0.00 0.00 0.04 0.05 0.06 0.09 0.07 0.09 0.03 0.05 0.14 0.11 0.01 0.00 0.02 0.03 0.05 0.06 0.00 0.00 0.00 0.00
0.00 0.00 0.00 0.00 0.00 0.00 0.00 0.00 0.00 0.00 0.00 0.00 0.00 0.00 0.00 0.00 0.00 0.00 0.00 0.00 0.00 0.00 0.00 0.00 0.00 0.00 0.00 0.00 0.00 0.01 0.04 0.03 0.04 0.06 0.06 0.06 0.10 0.04 0.01 0.01 0.00 0.00 0.00 0.00 0.00 0.00 0.00 0.00 0.00
0.00 0.00 0.02 0.04 0.00 0.00 0.00 0.00 0.00 0.00 0.00 0.00 0.00 0.00 0.00 0.00 0.00 0.00 0.00 0.00 0.00 0.00 0.00 0.00 0.00 0.00 0.00 0.00 0.00 0.01 0.02 0.03 0.08 0.06 0.05 0.00 0.00 0.00 0.01 0.01 0.00 0.00 0.00 0.00 0.00 0.00 0.00 0.00 0.00
0.00 0.00 0.02 0.03 0.00 0.00 0.00 0.00 0.00 0.00 0.00 0.00 0.00 0.00 0.01 0.00 0.00 0.00 0.00 0.00 0.00 0.00 0.00 0.00 0.00 0.00 0.00 0.01 0.00 0.01 0.02 0.04 0.03 0.01 0.00 0.00 0.01 0.05 0.01 0.00 0.00 0.00 0.00 0.00 0.00 0.00 0.00 0.00 0.00
0.00 0.00 0.06 0.02 0.01 0.00 0.00 0.00 0.00 0.00 0.00 0.00 0.00 0.00 0.00 0.00 0.00 0.00 0.00 0.00 0.00 0.00 0.00 0.00 0.00 0.00 0.00 0.01 0.02 0.03 0.05 0.02 0.00 0.00 0.00 0.01 0.01 0.01 0.00 0.00 0.00 0.00 0.00 0.00 0.00 0.00 0.00 0.00 0.00
0.00 0.00 0.01 0.01 0.00 0.00 0.00 0.00 0.00 0.00 0.00 0.00 0.00 0.00 0.00 0.00 0.00 0.00 0.00 0.00 0.01 0.00 0.00 0.00 0.00 0.00 0.00 0.00 0.01 0.05 0.08 0.05 0.00 0.00 0.00 0.00 0.00 0.00 0.00 0.00 0.00 0.00 0.00 0.00 0.00 0.00 0.00 0.00 0.00
0.00 0.00 0.00 0.00 0.00 0.00 0.00 0.00 0.00 0.00 0.00 0.00 0.00 0.00 0.00 0.00 0.00 0.00 0.00 0.00 0.00 0.00 0.00 0.00 0.00 0.00 0.00 0.00 0.00 0.00 0.05 0.03 0.00 0.00 0.00 0.00 0.00 0.00 0.00 0.00 0.00 0.00 0.00 0.00 0.00 0.00 0.00 0.00 0.00
0.00 0.00 0.00 0.00 0.00 0.00 0.00 0.00 0.00 0.00 0.00 0.00 0.00 0.00 0.00 0.00 0.00 0.00 0.00 0.00 0.00 0.00 0.00 0.00 0.00 0.00 0.00 0.00 0.00 0.00 0.00 0.00 0.00 0.00 0.00 0.00 0.00 0.00 0.00 0.00 0.00 0.00 0.00 0.00 0.00 0.00 0.00 0.00 0.00
0.00 0.00 0.00 0.00 0.00 0.00 0.00 0.00 0.00 0.00 0.00 0.00 0.00 0.00 0.00 0.00 0.00 0.00 0.00 0.00 0.00 0.00 0.00 0.00 0.00 0.00 0.00 0.00 0.00 0.00 0.00 0.00 0.00 0.00 0.00 0.00 0.00 0.00 0.00 0.00 0.00 0.00 0.00 0.00 0.00 0.00 0.00 0.00 0.00
0.00 0.00 0.00 0.00 0.00 0.00 0.00 0.00 0.00 0.00 0.00 0.00 0.00 0.00 0.00 0.00 0.00 0.00 0.00 0.00 0.00 0.00 0.00 0.00 0.00 0.00 0.00 0.00 0.00 0.00 0.00 0.00 0.00 0.00 0.00 0.00 0.00 0.00 0.00 0.00 0.00 0.00 0.00 0.00 0.00 0.00 0.00 0.00 0.00
0.00 0.00 0.00 0.00 0.00 0.00 0.00 0.00 0.01 0.00 0.00 0.00 0.00 0.00 0.00 0.00 0.00 0.00 0.00 0.00 0.00 0.00 0.00 0.00 0.00 0.00 0.00 0.00 0.00 0.00 0.00 0.00 0.00 0.00 0.00 0.00 0.00 0.00 0.00 0.00 0.00 0.00 0.00 0.00 0.00 0.00 0.00 0.00 0.00
0.00 0.00 0.00 0.00 0.00 0.00 0.00 0.00 0.00 0.00 0.00 0.00 0.00 0.00 0.00 0.00 0.00 0.00 0.00 0.00 0.00 0.00 0.00 0.00 0.00 0.00 0.00 0.00 0.00 0.00 0.00 0.00 0.00 0.00 0.00 0.00 0.00 0.00 0.00 0.00 0.00 0.00 0.00 0.00 0.00 0.00 0.00 0.00 0.00
0.00 0.00 0.00 0.00 0.00 0.00 0.01 0.01 0.00 0.00 0.00 0.00 0.00 0.00 0.00 0.00 0.00 0.00 0.00 0.00 0.00 0.00 0.00 0.00 0.00 0.00 0.00 0.00 0.00 0.00 0.00 0.00 0.00 0.00 0.00 0.00 0.00 0.00 0.00 0.00 0.00 0.00 0.00 0.00 0.00 0.00 0.00 0.00 0.00
0.00 0.00 0.00 0.00 0.00 0.00 0.01 0.01 0.00 0.00 0.00 0.00 0.00 0.00 0.00 0.00 0.00 0.00 0.00 0.00 0.00 0.00 0.00 0.00 0.00 0.00 0.00 0.00 0.00 0.00 0.00 0.00 0.00 0.00 0.00 0.00 0.00 0.00 0.00 0.00 0.00 0.00 0.00 0.00 0.00 0.00 0.00 0.00 0.00
0.00 0.00 0.00 0.00 0.00 0.00 0.00 0.00 0.00 0.00 0.00 0.00 0.00 0.00 0.00 0.00 0.00 0.00 0.00 0.00 0.00 0.00 0.00 0.00 0.00 0.00 0.00 0.00 0.00 0.00 0.00 0.00 0.00 0.00 0.00 0.00 0.00 0.00 0.00 0.00 0.00 0.00 0.00 0.00 0.00 0.00 0.00 0.00 0.00
0.00 0.00 0.00 0.00 0.00 0.00 0.00 0.00 0.00 0.00 0.00 0.00 0.00 0.00 0.00 0.00 0.00 0.00 0.00 0.00 0.00 0.00 0.00 0.00 0.00 0.00 0.00 0.00 0.00 0.00 0.00 0.00 0.00 0.00 0.00 0.00 0.00 0.00 0.00 0.00 0.00 0.00 0.00 0.00 0.00 0.00 0.00 0.00 0.00
0.00 0.00 0.00 0.00 0.00 0.00 0.00 0.00 0.00 0.00 0.00 0.00 0.00 0.00 0.00 0.00 0.00 0.00 0.00 0.00 0.00 0.00 0.00 0.00 0.00 0.00 0.00 0.00 0.00 0.00 0.00 0.00 0.00 0.00 0.00 0.00 0.00 0.00 0.00 0.00 0.00 0.00 0.00 0.00 0.00 0.00 0.00 0.00 0.00
0.00 0.00 0.00 0.00 0.00 0.00 0.00 0.00 0.00 0.00 0.00 0.00 0.00 0.00 0.00 0.00 0.00 0.00 0.00 0.00 0.00 0.00 0.00 0.00 0.00 0.00 0.00 0.00 0.00 0.00 0.00 0.00 0.00 0.00 0.00 0.00 0.00 0.00 0.00 0.00 0.00 0.00 0.00 0.00 0.00 0.00 0.00 0.00 0.00
0.00 0.00 0.00 0.00 0.00 0.00 0.00 0.00 0.00 0.00 0.00 0.00 0.00 0.00 0.00 0.00 0.00 0.00 0.00 0.00 0.00 0.00 0.00 0.00 0.00 0.00 0.00 0.00 0.00 0.00 0.00 0.00 0.00 0.00 0.00 0.00 0.00 0.00 0.00 0.00 0.00 0.00 0.00 0.00 0.00 0.00 0.00 0.00 0.00
0.00 0.00 0.00 0.00 0.00 0.00 0.00 0.00 0.00 0.00 0.00 0.00 0.00 0.00 0.00 0.00 0.00 0.00 0.00 0.00 0.00 0.00 0.00 0.00 0.00 0.00 0.00 0.00 0.00 0.00 0.00 0.00 0.00 0.00 0.00 0.00 0.00 0.00 0.00 0.00 0.00 0.00 0.00 0.00 0.00 0.00 0.00 0.00 0.00
0.00 0.00 0.00 0.00 0.00 0.00 0.00 0.00 0.00 0.00 0.00 0.00 0.00 0.00 0.00 0.00 0.00 0.00 0.00 0.00 0.00 0.00 0.00 0.00 0.00 0.00 0.00 0.00 0.00 0.00 0.00 0.00 0.00 0.00 0.00 0.00 0.00 0.00 0.00 0.00 0.00 0.00 0.00 0.00 0.00 0.00 0.00 0.00 0.00
0.00 0.00 0.00 0.00 0.00 0.00 0.00 0.00 0.00 0.00 0.00 0.00 0.00 0.00 0.00 0.00 0.00 0.00 0.00 0.00 0.00 0.00 0.00 0.00 0.00 0.00 0.00 0.00 0.00 0.00 0.00 0.00 0.00 0.00 0.00 0.00 0.00 0.00 0.00 0.00 0.00 0.00 0.00 0.00 0.00 0.00 0.00 0.00 0.00
0.00 0.00 0.00 0.00 0.00 0.00 0.00 0.00 0.00 0.00 0.00 0.00 0.00 0.00 0.00 0.00 0.00 0.00 0.00 0.00 0.00 0.00 0.00 0.00 0.00 0.00 0.00 0.00 0.00 0.00 0.00 0.00 0.00 0.00 0.00 0.00 0.00 0.00 0.00 0.00 0.00 0.00 0.00 0.00 0.00 0.00 0.00 0.00 0.00
0.00 0.00 0.00 0.00 0.00 0.00 0.00 0.00 0.00 0.00 0.00 0.00 0.00 0.00 0.00 0.00 0.00 0.00 0.00 0.00 0.00 0.00 0.00 0.00 0.00 0.00 0.00 0.00 0.00 0.00 0.00 0.00 0.00 0.00 0.00 0.00 0.00 0.00 0.00 0.00 0.00 0.00 0.00 0.00 0.00 0.00 0.00 0.00 0.00
0.00 0.00 0.00 0.00 0.00 0.00 0.00 0.00 0.00 0.00 0.00 0.00 0.00 0.00 0.00 0.00 0.00 0.00 0.00 0.00 0.00 0.00 0.00 0.00 0.00 0.00 0.00 0.00 0.00 0.00 0.00 0.00 0.00 0.00 0.00 0.00 0.00 0.00 0.00 0.00 0.00 0.00 0.00 0.00 0.00 0.00 0.00 0.00 0.00
0.00 0.00 0.00 0.00 0.00 0.00 0.00 0.00 0.00 0.00 0.00 0.00 0.00 0.00 0.00 0.00 0.00 0.00 0.00 0.00 0.00 0.00 0.00 0.00 0.00 0.00 0.00 0.00 0.00 0.00 0.00 0.00 0.00 0.00 0.00 0.00 0.00 0.00 0.00 0.00 0.00 0.00 0.00 0.00 0.00 0.00 0.00 0.00 0.03
0.00 0.00 0.00 0.00 0.00 0.00 0.00 0.00 0.00 0.00 0.00 0.00 0.00 0.00 0.00 0.00 0.00 0.00 0.00 0.00 0.00 0.00 0.00 0.00 0.00 0.00 0.00 0.00 0.00 0.00 0.00 0.00 0.00 0.00 0.00 0.00 0.00 0.00 0.00 0.00 0.00 0.00 0.00 0.00 0.00 0.00 0.00 0.00 0.01
MSLP
1011.02 1011.15 1011.19 1010.81 1010.70 1009.80 1009.64 1009.86 1009.59 1009.73 1010.21 1010.71 1011.50 1011.82 1012.37 1013.20 1013.47 1014.39 1015.00 1015.10 1015.26 1015.72 1015.94 1016.17 1016.41 1016.48 1016.57 1016.68 1016.80 1017.05 1017.20 1017.18 1017.49 1017.66 1017.77 1017.85 1017.99 1017.99 1018.01 1018.05 1018.07 1018.09 1018.10 1018.18 1018.26 1018.28 1018.27 1018.34 1018.44
1011.06 1011.33 1011.11 1010.37 1010.10 1009.36 1009.68 1009.82 1009.88 1010.18 1010.68 1011.07 1011.78 1012.25 1012.67 1013.60 1014.12 1014.63 1014.88 1015.27 1015.38 1015.85 1016.14 1016.32 1016.58 1016.68 1016.79 1016.94 1017.16 1017.27 1017.46 1017.67 1017.80 1017.79 1017.95 1018.17 1018.19 1018.32 1018.32 1018.46 1018.59 1018.51 1018.55 1018.51 1018.56 1018.59 1018.58 1018.79 1018.79
1011.18 1011.16 1010.87 1010.18 1010.00 1009.66 1009.57 1010.05 1010.34 1010.73 1011.05 1011.31 1011.92 1012.48 1013.02 1013.93 1014.40 1014.72 1015.06 1015.50 1015.71 1015.98 1016.24 1016.53 1016.77 1016.94 1017.04 1017.27 1017.36 1017.51 1017.73 1018.01 1018.06 1018.20 1018.17 1018.39 1018.50 1018.63 1018.74 1018.78 1018.85 1018.88 1018.89 1018.94 1018.98 1018.89 1018.90 1019.00 1018.98
1011.06 1011.21 1010.89 1010.35 1009.94 1009.88 1009.81 1010.21 1010.58 1010.92 1011.40 1011.76 1012.18 1012.89 1013.80 1014.11 1014.64 1015.00 1015.50 1015.65 1016.08 1016.26 1016.53 1016.87 1016.97 1017.07 1017.27 1017.54 1017.59 1017.74 1018.05 1018.29 1018.51 1018.54 1018.48 1018.57 1018.73 1018.97 1019.09 1019.10 1019.18 1019.27 1019.26 1019.27 1019.33 1019.31 1019.21 1019.21 1019.26
1010.94 1010.66 1010.23 1010.17 1010.28 1010.21 1010.28 1010.54 1010.75 1011.06 1011.67 1012.16 1012.59 1013.51 1014.20 1014.90 1014.99 1015.46 1015.84 1016.07 1016.23 1016.59 1016.77 1016.99 1017.19 1017.34 1017.56 1017.79 1017.95 1018.13 1018.40 1018.54 1018.70 1018.78 1018.82 1018.94 1019.10 1019.20 1019.30 1019.46 1019.59 1019.55 1019.56 1019.57 1019.62 1019.52 1019.48 1019.42 1019.46
1010.75 1010.62 1010.34 1010.31 1010.57 1010.49 1010.57 1010.72 1010.85 1011.31 1011.94 1012.57 1013.12 1013.78 1014.99 1015.33 1015.32 1015.77 1016.11 1016.37 1016.40 1016.77 1016.98 1017.20 1017.50 1017.62 1017.81 1018.04 1018.21 1018.35 1018.65 1018.79 1018.81 1018.92 1019.15 1019.24 1019.31 1019.45 1019.66 1019.77 1019.86 1019.85 1019.92 1019.79 1019.89 1019.84 1019.78 1019.61 1019.64
1010.65 1010.50 1011.01 1010.87 1010.83 1010.69 1010.64 1010.72 1010.93 1011.40 1011.96 1012.52 1013.24 1013.83 1015.32 1015.57 1015.72 1016.05 1016.48 1016.71 1016.85 1017.13 1017.28 1017.51 1017.58 1017.83 1018.04 1018.25 1018.51 1018.59 1018.79 1019.12 1019.12 1019.11 1019.43 1019.55 1019.64 1019.87 1019.89 1020.03 1020.08 1020.13 1020.09 1020.11 1020.11 1020.06 1019.97 1019.95 1019.96
1010.85 1010.76 1011.23 1011.09 1010.75 1010.80 1010.80 1010.85 1011.33 1011.41 1012.10 1012.58 1013.03 1013.76 1014.86 1015.55 1015.92 1016.31 1016.69 1016.94 1017.24 1017.25 1017.40 1017.62 1017.76 1017.92 1018.06 1018.37 1018.63 1018.91 1019.20 1019.20 1019.31 1019.49 1019.66 1019.72 1019.88 1020.06 1020.23 1020.28 1020.34 1020.31 1020.34 1020.41 1020.33 1020.24 1020.26 1020.17 1020.11
1010.96 1010.82 1011.20 1011.09 1010.98 1011.00 1010.90 1010.84 1011.28 1011.61 1012.00 1012.56 1012.99 1013.49 1014.35 1015.57 1016.09 1016.31 1016.71 1017.08 1017.39 1017.60 1017.67 1017.67 1017.81 1018.18 1018.39 1018.53 1018.82 1019.19 1019.47 1019.65 1019.63 1019.71 1019.92 1020.04 1019.98 1020.04 1020.18 1020.48 1020.49 1020.51 1020.61 1020.57 1020.50 1020.40 1020.35 1020.21 1020.16
1010.82 1010.82 1011.17 1011.32 1011.19 1011.06 1010.94 1010.76 1011.11 1011.55 1012.09 1012.92 1013.52 1014.23 1015.04 1015.84 1016.07 1016.25 1016.54 1016.81 1017.20 1017.53 1017.77 1017.78 1017.88 1018.22 1018.49 1018.53 1018.93 1019.26 1019.55 1019.56 1019.61 1019.88 1020.12 1020.19 1020.37 1020.41 1020.37 1020.58 1020.74 1020.79 1020.79 1020.73 1020.64 1020.52 1020.33 1020.00 1019.62
1010.69 1010.76 1010.95 1011.04 1010.88 1010.86 1010.81 1010.87 1011.04 1011.26 1011.78 1012.36 1013.20 1014.18 1015.27 1015.88 1016.08 1016.29 1016.61 1016.83 1017.06 1017.51 1017.85 1018.07 1018.16 1018.43 1018.45 1018.70 1019.22 1019.30 1019.47 1019.68 1019.89 1020.22 1020.41 1020.53 1020.54 1020.63 1020.55 1020.71 1020.71 1020.84 1020.92 1020.48 1020.40 1020.22 1019.98 1019.94 1019.75
1010.47 1011.07 1010.99 1011.12 1011.00 1010.88 1010.83 1011.04 1011.00 1011.19 1011.36 1011.91 1013.20 1014.17 1014.99 1015.71 1015.94 1016.19 1016.50 1016.93 1017.24 1017.52 1017.81 1018.16 1018.44 1018.57 1018.78 1018.96 1019.29 1019.50 1019.50 1019.82 1019.91 1020.20 1020.56 1020.67 1020.59 1020.77 1020.90 1020.95 1021.15 1021.08 1020.94 1020.85 1020.66 1020.30 1020.21 1019.92 1019.85
1010.21 1010.70 1011.16 1011.37 1011.24 1011.23 1011.13 1010.88 1010.95 1011.39 1011.73 1012.26 1013.42 1014.33 1014.74 1015.28 1015.80 1016.20 1016.57 1017.03 1017.39 1017.60 1017.78 1018.16 1018.46 1018.72 1018.89 1019.12 1019.43 1019.68 1019.68 1019.92 1020.05 1020.36 1020.69 1020.70 1020.76 1020.94 1021.07 1021.19 1021.20 1021.24 1021.14 1020.84 1020.67 1020.50 1020.27 1020.05 1019.66
1010.09 1010.53 1011.23 1011.77 1011.73 1011.51 1011.23 1010.82 1010.96 1011.11 1011.82 1012.65 1013.57 1013.94 1014.53 1014.90 1015.50 1016.01 1016.46 1016.78 1017.15 1017.44 1017.79 1018.19 1018.56 1018.79 1018.99 1019.10 1019.43 1019.64 1019.87 1020.15 1020.39 1020.48 1020.63 1020.90 1020.94 1021.11 1021.07 1021.11 1021.17 1021.23 1021.12 1020.92 1020.83 1020.68 1020.32 1019.99 1019.57
1010.13 1010.54 1010.89 1011.47 1011.56 1011.19 1011.11 1010.81 1010.54 1011.05 1011.59 1012.40 1013.31 1013.92 1014.36 1014.81 1015.28 1015.51 1015.84 1016.30 1016.72 1017.18 1017.64 1018.01 1018.46 1018.72 1019.03 1019.24 1019.42 1019.60 1019.77 1020.06 1020.26 1020.44 1020.80 1020.95 1021.05 1021.15 1021.17 1021.03 1021.11 1021.10 1021.11 1021.12 1020.85 1020.60 1020.11 1019.78 1019.54
1009.74 1009.92 1010.21 1011.13 1011.11 1011.00 1010.71 1010.46 1010.65 1011.19 1011.41 1012.07 1012.69 1013.51 1014.17 1014.63 1014.78 1015.10 1015.56 1015.96 1016.41 1016.86 1017.47 1017.92 1018.17 1018.54 1018.91 1019.21 1019.45 1019.50 1019.66 1019.92 1020.13 1020.30 1020.58 1020.87 1021.00 1021.15 1021.12 1021.00 1021.00 1021.10 1021.08 1020.91 1020.69 1020.38 1020.21 1019.97 1019.79
1009.77 1009.71 1010.16 1010.33 1010.60 1010.81 1010.65 1010.31 1010.52 1011.11 1011.35 1011.79 1012.39 1012.91 1013.49 1013.99 1014.45 1014.82 1015.24 1015.58 1015.91 1016.56 1017.26 1017.78 1018.11 1018.39 1018.80 1019.21 1019.43 1019.59 1019.73 1019.83 1019.87 1020.14 1020.35 1020.63 1020.85 1020.99 1021.08 1020.95 1020.97 1021.21 1021.00 1020.92 1020.78 1020.60 1020.54 1020.21 1019.96
1009.77 1009.76 1010.05 1009.83 1010.03 1010.43 1010.24 1009.92 1010.35 1010.77 1010.98 1011.20 1011.84 1012.36 1012.69 1013.16 1013.56 1014.11 1014.77 1015.15 1015.52 1016.23 1016.93 1017.55 1017.98 1018.26 1018.60 1018.94 1019.40 1019.49 1019.59 1019.67 1019.74 1019.93 1020.15 1020.53 1020.70 1020.94 1021.11 1020.92 1020.99 1021.12 1021.02 1021.00 1020.89 1020.95 1020.81 1020.72 1020.35
1009.98 1010.10 1009.79 1009.70 1009.77 1009.89 1009.45 1009.17 1009.42 1010.08 1010.47 1010.75 1011.24 1011.83 1012.05 1012.29 1012.79 1013.54 1014.09 1014.70 1015.19 1015.89 1016.63 1017.09 1017.65 1018.04 1018.45 1018.73 1018.95 1019.20 1019.21 1019.42 1019.52 1019.64 1020.02 1020.39 1020.61 1020.77 1020.99 1020.78 1020.83 1021.02 1021.16 1021.19 1021.18 1021.10 1021.03 1020.56 1020.48
1010.04 1010.01 1009.82 1009.70 1009.49 1009.53 1008.86 1008.58 1008.45 1009.13 1009.45 1009.70 1010.25 1010.74 1011.22 1011.83 1012.23 1012.81 1013.49 1014.09 1014.64 1015.10 1015.77 1016.53 1017.04 1017.59 1018.01 1018.29 1018.49 1018.72 1018.81 1018.95 1019.01 1019.25 1019.66 1020.06 1020.37 1020.60 1020.71 1020.77 1020.63 1020.85 1020.92 1021.15 1021.21 1021.29 1020.94 1020.80 1020.82
1010.36 1010.13 1009.99 1009.95 1009.41 1009.02 1008.63 1008.01 1008.14 1008.58 1009.03 1009.52 1009.72 1010.10 1010.35 1010.60 1011.25 1012.03 1012.62 1013.22 1013.76 1014.38 1015.05 1015.67 1016.26 1016.89 1017.38 1017.79 1018.22 1018.46 1018.62 1018.78 1018.91 1019.11 1019.31 1019.57 1020.06 1020.27 1020.42 1020.47 1020.57 1020.77 1020.88 1020.81 1021.03 1021.08 1021.13 1020.69 1020.77
1010.55 1010.61 1010.41 1009.81 1009.27 1008.51 1008.54 1007.52 1007.56 1007.73 1008.01 1008.44 1008.82 1009.20 1009.47 1009.75 1010.27 1010.89 1011.71 1012.24 1012.86 1013.34 1013.99 1014.80 1015.53 1016.16 1016.85 1017.36 1017.64 1017.75 1017.66 1017.91 1018.14 1018.55 1018.87 1019.12 1019.68 1019.93 1020.06 1020.25 1020.42 1020.49 1020.42 1020.67 1020.66 1020.66 1020.92 1020.98 1020.61
1011.21 1011.01 1010.66 1010.08 1009.41 1009.02 1008.21 1007.89 1006.99 1007.42 1007.23 1007.35 1007.52 1007.66 1008.11 1008.67 1009.37 1009.70 1010.28 1010.86 1011.62 1012.55 1013.25 1013.96 1014.75 1015.48 1016.14 1016.74 1016.96 1017.25 1017.33 1017.38 1017.82 1018.22 1018.59 1018.91 1019.25 1019.66 1019.78 1020.03 1020.23 1020.25 1020.18 1020.26 1020.55 1020.71 1020.87 1020.81 1020.75
1011.86 1011.19 1010.86 1010.62 1009.75 1008.45 1007.98 1007.69 1006.21 1006.40 1006.17 1006.20 1006.73 1007.19 1007.42 1007.71 1008.18 1008.78 1009.65 1010.40 1011.01 1011.69 1012.49 1013.25 1014.03 1014.66 1015.44 1016.07 1016.50 1016.75 1016.80 1017.12 1017.44 1017.81 1018.05 1018.30 1018.61 1018.85 1019.28 1019.55 1019.85 1019.94 1019.97 1020.17 1020.20 1020.30 1020.57 1020.72 1020.80
1011.96 1011.38 1010.68 1010.19 1009.52 1007.97 1008.38 1007.66 1006.31 1006.15 1006.44 1006.57 1006.50 1006.46 1006.54 1006.71 1007.07 1007.67 1008.40 1009.08 1009.79 1010.58 1011.49 1012.38 1013.24 1013.90 1014.64 1015.35 1015.80 1016.18 1016.41 1016.74 1017.05 1017.42 1017.64 1017.75 1018.03 1018.28 1018.63 1019.09 1019.45 1019.43 1019.65 1019.80 1019.96 1020.21 1020.35 1020.51 1020.61
1012.85 1012.64 1011.85 1010.91 1009.91 1009.06 1009.14 1007.32 1006.23 1006.50 1006.87 1007.22 1007.23 1006.95 1006.54 1005.96 1006.40 1006.52 1006.60 1007.52 1008.51 1009.42 1010.22 1011.11 1012.11 1012.93 1013.70 1014.40 1014.96 1015.52 1015.98 1016.17 1016.41 1016.83 1016.96 1017.21 1017.35 1017.54 1017.75 1018.31 1018.61 1018.94 1019.23 1019.43 1019.67 1019.81 1019.86 1020.00 1020.22
1013.51 1013.34 1013.59 1012.52 1012.13 1010.84 1008.92 1007.74 1007.08 1006.78 1006.93 1007.25 1007.27 1007.26 1007.13 1006.87 1006.02 1005.69 1006.07 1006.52 1007.13 1008.11 1009.02 1009.89 1010.84 1011.71 1012.56 1013.32 1014.10 1014.78 1015.33 1015.76 1015.75 1016.11 1016.57 1016.72 1016.98 1017.05 1017.39 1017.70 1018.11 1018.31 1018.57 1018.85 1019.09 1019.34 1019.45 1019.64 1019.81
1014.02 1014.22 1013.88 1013.38 1012.25 1010.92 1009.25 1008.56 1007.25 1007.47 1007.90 1007.78 1007.59 1007.34 1007.39 1007.15 1006.34 1005.47 1004.81 1005.43 1006.10 1006.82 1007.65 1008.98 1009.70 1010.38 1011.14 1012.14 1013.08 1013.77 1014.40 1014.95 1015.34 1015.66 1015.92 1016.16 1016.40 1016.70 1016.95 1017.40 1017.63 1017.81 1017.96 1018.16 1018.59 1018.79 1018.98 1019.26 1019.17
1014.65 1014.29 1014.35 1014.11 1013.46 1011.89 1010.40 1008.38 1008.39 1008.73 1008.92 1008.69 1008.36 1008.37 1007.94 1007.19 1006.26 1005.32 1003.82 1004.40 1005.39 1006.30 1007.31 1007.84 1008.79 1009.52 1010.39 1011.26 1012.05 1012.82 1013.50 1014.09 1014.61 1014.89 1015.22 1015.56 1015.92 1016.27 1016.60 1016.86 1017.10 1017.34 1017.59 1017.73 1018.00 1018.19 1018.40 1018.58 1018.57
1015.35 1015.01 1014.74 1014.18 1013.92 1013.23 1012.17 1009.11 1008.61 1009.17 1009.19 1009.37 1008.79 1008.47 1008.00 1007.62 1006.53 1005.56 1003.69 1003.83 1004.64 1005.27 1006.01 1006.71 1007.52 1008.44 1009.07 1009.97 1010.85 1011.60 1012.36 1013.11 1013.60 1014.01 1014.37 1014.81 1015.16 1015.54 1015.83 1016.17 1016.49 1016.64 1016.81 1017.02 1017.33 1017.46 1017.52 1017.74 1017.82
Thickness
5800 5797 5795 5790 5772 5770 5753 5753 5772 5764 5761 5770 5768 5759 5754 5749 5745 5736 5755 5758 5758 5756 5756 5755 5754 5755 5755 5756 5756 5756 5756 5757 5755 5755 5755 5754 5754 5755 5758 5759 5760 5761 5762 5763 5763 5764 5764 5765 5765
5801 5798 5794 5787 5767 5760 5755 5769 5761 5766 5768 5773 5767 5761 5755 5743 5753 5751 5753 5759 5759 5756 5755 5756 5756 5756 5756 5756 5756 5755 5756 5755 5755 5755 5754 5753 5754 5754 5757 5759 5759 5761 5762 5764 5764 5764 5765 5765 5765
5803 5801 5786 5780 5766 5751 5756 5766 5765 5769 5775 5771 5761 5767 5760 5749 5755 5756 5762 5760 5758 5758 5757 5756 5757 5756 5755 5755 5755 5754 5753 5753 5753 5752 5752 5753 5755 5755 5757 5759 5760 5761 5762 5762 5763 5765 5765 5765 5765
5801 5794 5791 5775 5763 5770 5769 5770 5773 5769 5772 5773 5769 5754 5761 5766 5761 5762 5762 5760 5758 5757 5757 5756 5757 5757 5756 5754 5754 5754 5753 5752 5751 5750 5753 5753 5756 5757 5759 5759 5759 5761 5762 5763 5762 5764 5765 5765 5764
5802 5794 5784 5774 5766 5773 5775 5779 5779 5769 5767 5765 5768 5751 5752 5760 5767 5764 5761 5760 5758 5757 5757 5757 5758 5758 5757 5754 5752 5753 5753 5753 5753 5754 5754 5755 5757 5757 5758 5758 5759 5761 5762 5763 5763 5765 5764 5765 5765
5792 5793 5777 5764 5765 5774 5776 5782 5780 5773 5769 5764 5760 5757 5750 5762 5764 5763 5763 5760 5759 5759 5758 5758 5757 5758 5758 5756 5753 5755 5754 5755 5757 5758 5756 5756 5757 5758 5758 5759 5761 5761 5762 5765 5765 5764 5765 5767 5767
5787 5787 5768 5771 5767 5771 5774 5790 5778 5772 5769 5765 5768 5754 5752 5756 5764 5766 5763 5761 5759 5758 5758 5758 5758 5758 5758 5758 5756 5756 5757 5756 5758 5760 5759 5759 5759 5759 5761 5761 5761 5763 5764 5765 5765 5766 5767 5767 5767
5792 5788 5764 5772 5772 5768 5784 5788 5785 5779 5767 5780 5777 5755 5749 5758 5764 5766 5764 5762 5761 5761 5761 5759 5759 5760 5760 5758 5758 5757 5757 5758 5759 5760 5760 5761 5761 5761 5761 5762 5763 5765 5765 5765 5767 5768 5767 5768 5769
5801 5781 5762 5772 5774 5775 5789 5785 5792 5792 5780 5777 5776 5771 5772 5767 5764 5764 5761 5760 5760 5760 5762 5761 5760 5759 5759 5760 5759 5757 5757 5757 5760 5761 5760 5760 5762 5763 5764 5765 5766 5767 5767 5767 5768 5770 5770 5772 5773
5790 5782 5775 5786 5787 5783 5790 5793 5790 5782 5778 5768 5767 5770 5769 5765 5764 5761 5760 5759 5760 5760 5761 5762 5762 5760 5759 5761 5759 5759 5759 5760 5761 5761 5760 5760 5761 5763 5766 5767 5767 5768 5769 5769 5770 5773 5774 5777 5780
5796 5783 5792 5793 5799 5799 5795 5793 5798 5788 5775 5779 5769 5768 5765 5762 5764 5762 5762 5764 5763 5763 5763 5762 5761 5760 5761 5761 5759 5760 5761 5761 5761 5760 5761 5761 5763 5765 5767 5768 5769 5769 5770 5772 5775 5777 5779 5782 5784
5792 5793 5797 5795 5801 5800 5794 5799 5792 5793 5792 5797 5785 5777 5770 5762 5764 5764 5763 5763 5763 5763 5763 5764 5761 5761 5761 5761 5761 5761 5762 5761 5762 5762 5762 5764 5766 5767 5767 5768 5768 5770 5771 5773 5776 5779 5782 5785 5786
5797 5797 5796 5796 5799 5799 5801 5795 5795 5790 5798 5797 5788 5778 5773 5770 5767 5767 5767 5766 5765 5762 5764 5764 5763 5762 5762 5761 5762 5762 5763 5762 5762 5763 5764 5766 5768 5768 5768 5768 5770 5771 5773 5776 5778 5781 5784 5787 5790
5804 5800 5792 5790 5791 5794 5790 5795 5796 5800 5800 5792 5784 5782 5778 5776 5772 5769 5767 5767 5766 5766 5765 5765 5762 5762 5763 5763 5763 5763 5763 5762 5761 5764 5766 5767 5768 5769 5770 5771 5772 5773 5776 5778 5780 5783 5786 5789 5793
5800 5787 5792 5788 5789 5790 5797 5785 5790 5801 5801 5792 5784 5782 5780 5778 5777 5775 5775 5772 5772 5769 5768 5767 5764 5763 5764 5764 5764 5764 5765 5764 5764 5765 5766 5768 5769 5769 5770 5773 5775 5776 5779 5779 5781 5785 5789 5792 5796
5792 5795 5781 5787 5789 5795 5798 5778 5794 5800 5798 5792 5791 5785 5780 5779 5782 5783 5781 5779 5777 5774 5770 5769 5768 5766 5765 5765 5765 5766 5766 5766 5766 5768 5769 5770 5770 5770 5771 5774 5777 5778 5781 5782 5784 5788 5790 5793 5796
5788 5770 5775 5783 5796 5790 5791 5784 5796 5800 5796 5791 5792 5791 5787 5785 5785 5785 5786 5786 5784 5779 5774 5770 5771 5770 5768 5766 5766 5766 5767 5769 5771 5771 5772 5773 5773 5773 5773 5775 5777 5778 5781 5783 5785 5788 5788 5791 5794
5763 5770 5771 5776 5794 5786 5789 5791 5799 5799 5799 5797 5793 5792 5793 5791 5791 5791 5789 5790 5790 5785 5779 5775 5773 5773 5772 5769 5768 5769 5771 5773 5775 5775 5776 5775 5776 5775 5774 5777 5778 5779 5781 5783 5784 5784 5787 5788 5792
5774 5769 5769 5785 5797 5789 5794 5799 5806 5802 5801 5799 5797 5794 5795 5797 5802 5799 5796 5794 5792 5788 5781 5779 5777 5775 5773 5772 5771 5772 5774 5777 5779 5780 5779 5778 5777 5777 5776 5778 5779 5779 5780 5781 5781 5783 5783 5789 5793
5770 5760 5767 5780 5792 5787 5795 5795 5812 5810 5807 5808 5805 5802 5801 5800 5800 5801 5798 5796 5795 5794 5790 5785 5783 5781 5778 5778 5779 5778 5779 5781 5784 5784 5782 5780 5779 5779 5779 5779 5780 5779 5781 5781 5780 5781 5783 5786 5788
5761 5759 5760 5762 5781 5790 5790 5791 5796 5806 5813 5812 5812 5812 5810 5808 5804 5802 5802 5800 5800 5797 5795 5792 5789 5787 5785 5784 5782 5782 5783 5783 5783 5785 5786 5784 5782 5781 5782 5782 5782 5780 5780 5783 5782 5782 5782 5783 5787
5747 5764 5763 5767 5766 5761 5787 5765 5791 5803 5806 5812 5813 5813 5814 5814 5814 5811 5807 5808 5805 5804 5804 5801 5796 5792 5789 5787 5785 5785 5787 5785 5787 5787 5788 5786 5784 5784 5784 5784 5784 5784 5784 5783 5785 5785 5785 5784 5783
5746 5758 5757 5762 5762 5759 5774 5765 5791 5794 5799 5808 5816 5821 5822 5821 5817 5816 5814 5814 5813 5810 5806 5804 5801 5797 5793 5790 5790 5788 5789 5793 5792 5791 5788 5788 5787 5785 5785 5784 5783 5785 5786 5786 5784 5783 5783 5785 5783
5747 5751 5750 5747 5756 5744 5770 5766 5786 5794 5806 5815 5819 5819 5821 5823 5822 5821 5819 5816 5812 5814 5810 5807 5803 5800 5797 5793 5792 5791 5792 5791 5791 5790 5789 5790 5790 5789 5787 5785 5783 5784 5784 5784 5784 5783 5782 5781 5781
5741 5739 5727 5726 5729 5745 5758 5758 5783 5803 5805 5808 5811 5819 5825 5827 5828 5824 5821 5820 5818 5816 5814 5810 5806 5802 5800 5796 5794 5793 5794 5794 5791 5790 5790 5791 5790 5790 5788 5785 5784 5783 5782 5782 5783 5781 5780 5780 5779
5719 5720 5714 5698 5718 5737 5741 5748 5780 5798 5803 5801 5805 5812 5821 5829 5828 5829 5833 5829 5823 5821 5819 5816 5811 5806 5804 5801 5797 5795 5794 5795 5795 5793 5793 5793 5793 5792 5790 5787 5786 5783 5782 5780 5779 5780 5780 5780 5780
5711 5705 5710 5708 5700 5706 5737 5756 5778 5791 5789 5792 5794 5800 5803 5811 5827 5834 5832 5832 5829 5825 5823 5821 5816 5812 5808 5805 5800 5796 5795 5794 5796 5796 5794 5794 5793 5793 5790 5788 5786 5784 5783 5781 5779 5779 5779 5779 5779
5706 5708 5697 5696 5685 5689 5722 5721 5744 5757 5761 5773 5781 5789 5794 5802 5816 5830 5840 5837 5836 5833 5830 5821 5820 5816 5814 5809 5804 5800 5797 5795 5794 5794 5794 5794 5793 5791 5791 5787 5786 5785 5784 5782 5780 5780 5780 5779 5781
5689 5691 5689 5690 5688 5689 5693 5724 5749 5741 5746 5754 5770 5776 5785 5796 5809 5823 5843 5842 5835 5830 5825 5824 5819 5816 5813 5811 5807 5802 5799 5797 5794 5795 5794 5793 5791 5790 5789 5788 5786 5785 5783 5783 5782 5781 5780 5779 5781
5679 5676 5681 5675 5673 5681 5679 5713 5753 5742 5745 5746 5756 5767 5779 5787 5800 5812 5838 5840 5835 5832 5829 5828 5827 5821 5819 5815 5811 5807 5802 5798 5796 5796 5796 5794 5793 5791 5790 5788 5787 5787 5786 5785 5783 5782 5784 5782 5781